Location: Abraham Lincoln Continuation High School
(33.9711°N, 117.3662°W)
Time: 14:15:58
(UTC+00:00)

Cosmos 1975 - Pass Details

Date: 21 September 2020
Orbit: 540 x 563 km, 82.5° (Epoch: 29 October)

Event Time Altitude Azimuth Distance (km) Brightness Sun altitude
Rises 02:31:32 0° 200° (SSW) 2,738 6.5 -9.8°
Reaches altitude 10° 02:33:47 10° 207° (SSW) 1,847 5.8 -10.3°
Maximum altitude 02:37:40 43° 279° (W) 799 4.3 -11.1°
Drops below altitude 10° 02:41:34 10° 352° (N) 1,856 5.7 -11.9°
Sets 02:43:50 0° 359° (N) 2,753 6.5 -12.3°
